EHI
1 1 1 0 0 0 0 0 0 0 0 0 0 0 0 0 0 0 0 0 0 0 0 1 2 2 1 0 0 0 0 0 0 0 0 0 0 0 0 0 0 0 0
0 0 0 0 0 0 0 0 0 0 0 0 0 0 0 0 0 0 0 0 0 0 0 1 2 2 1 0 0 0 0 0 0 0 0 0 0 0 0 0 0 0 0
0 0 0 0 0 0 0 0 0 0 0 0 0 0 0 0 0 0 0 0 0 0 0 0 1 1 0 0 0 0 0 0 0 0 0 0 0 0 0 0 0 0 0
0 0 0 0 1 1 1 0 0 0 0 0 0 0 0 0 0 0 0 0 0 0 0 0 0 0 0 0 0 0 0 0 0 0 0 0 0 0 0 0 0 0 0
0 0 0 1 2 2 2 1 1 0 0 0 0 0 0 0 0 0 0 0 0 0 0 0 0 0 0 0 0 0 0 0 1 1 0 0 0 0 0 0 0 0 0
0 0 0 1 2 3 3 2 1 0 0 0 0 0 0 0 0 0 0 0 0 0 0 0 0 0 0 0 0 0 0 0 1 1 0 0 0 0 0 0 0 0 0
0 0 0 1 1 1 2 2 1 0 0 0 0 0 0 0 0 0 0 0 0 0 0 0 0 0 0 0 0 0 0 0 1 1 0 0 0 0 0 0 0 0 0
0 0 0 0 0 0 1 1 0 0 0 0 0 0 0 0 0 0 0 0 0 0 0 0 0 0 0 0 0 0 0 0 0 0 0 0 0 0 0 0 0 0 0
0 0 0 0 0 0 0 0 0 0 0 0 0 0 0 0 0 0 0 0 0 0 0 0 0 0 0 0 0 0 0 0 0 0 0 0 0 0 0 0 0 0 0
0 0 0 0 0 0 0 0 0 0 0 0 0 0 0 0 0 0 0 0 0 0 0 0 0 0 0 0 0 0 0 0 0 0 0 0 0 0 0 0 1 1 0
0 0 0 0 0 0 0 0 0 0 0 0 0 0 0 0 0 0 0 0 0 0 0 0 0 0 0 0 0 0 0 0 0 0 0 0 0 0 0 0 1 1 1
0 0 0 0 0 0 0 0 0 0 0 0 0 0 0 0 0 0 0 0 0 0 0 0 0 0 0 0 0 0 0 0 0 0 0 0 0 0 0 0 0 0 0
0 0 0 0 0 0 0 0 0 0 0 0 0 0 0 0 0 0 0 0 0 0 0 0 0 0 0 0 0 0 0 0 0 0 0 0 0 0 0 0 0 0 0
1 0 0 0 0 0 0 0 0 0 0 0 0 0 0 0 0 0 0 0 0 0 0 0 0 0 0 0 0 0 0 0 0 0 0 0 0 0 0 0 0 0 0
2 1 0 0 0 0 0 0 0 0 0 0 0 0 0 0 0 0 0 0 0 0 0 0 0 0 0 0 0 0 0 0 0 0 0 0 0 0 0 0 0 0 0
2 1 0 0 1 1 0 0 0 0 0 0 0 0 0 0 0 0 0 0 0 0 0 0 0 0 0 0 0 0 0 0 0 0 0 0 0 0 0 0 0 0 0
1 0 0 0 1 2 1 1 1 1 0 0 0 0 0 0 0 0 0 0 0 0 0 0 0 0 0 0 0 0 0 0 0 0 0 0 0 0 0 0 0 0 0
0 0 0 0 1 2 3 2 2 2 1 1 0 0 0 0 0 0 0 0 0 0 0 0 0 0 0 0 0 0 0 0 0 0 0 0 0 0 0 0 0 0 0
0 0 0 0 1 2 3 3 3 3 3 2 1 1 0 0 0 0 0 0 0 0 0 0 0 0 0 0 0 0 0 0 0 0 0 0 0 0 0 0 0 0 0
0 0 0 0 1 2 3 3 3 3 3 3 3 2 1 0 0 0 0 0 0 0 0 0 0 0 0 0 0 0 0 0 0 0 0 0 0 0 0 0 0 0 0
0 0 0 0 1 2 3 3 3 3 3 3 3 3 1 0 0 0 0 0 0 0 0 0 0 0 0 0 0 0 0 0 0 0 0 0 0 0 0 0 0 0 0
0 0 0 0 1 2 3 2 1 2 3 3 3 3 2 1 0 0 0 0 0 0 0 0 0 0 0 0 0 0 0 0 0 0 0 0 0 0 0 0 0 0 0
1 0 0 0 1 2 3 2 1 1 3 3 3 3 2 1 0 0 0 0 0 0 0 0 0 0 0 0 0 0 0 0 0 0 0 0 0 0 0 0 0 0 0
2 1 0 0 1 2 3 1 0 1 2 3 2 2 1 1 0 0 0 0 0 0 0 0 0 0 0 0 0 0 0 0 0 0 0 0 0 0 0 0 0 0 0
2 1 0 0 1 2 2 1 0 1 1 1 1 1 0 0 0 0 0 0 0 0 0 0 0 0 0 0 0 0 0 0 0 0 0 0 0 0 0 0 0 0 0
2 1 0 0 1 2 2 1 0 0 1 0 0 0 0 0 0 0 0 0 0 0 0 0 0 0 0 0 0 0 0 0 0 0 0 0 0 0 0 0 0 0 0
Wind_Speed
2 2 2 2 2 1 1 2 2 3 3 3 3 3 3 4 4 3 3 7 7 7 7 7 8 8 8 8 9 9 8 8 7 7 7 8 8 8 8 9 9 9 9
3 2 2 2 2 2 2 2 3 3 3 3 3 3 3 3 3 3 4 4 6 6 6 6 7 7 8 8 8 8 8 7 7 7 7 7 7 7 7 8 8 8 8
3 3 2 2 2 2 3 3 4 3 3 3 3 3 2 2 2 3 3 3 3 4 5 5 6 7 7 8 8 7 7 7 7 7 7 7 7 7 7 8 8 8 8
5 4 3 2 3 3 3 3 3 3 3 3 2 2 2 2 2 2 2 3 3 3 4 5 5 6 7 7 7 7 7 7 8 8 8 8 7 7 7 7 7 8 7
5 4 3 3 3 3 3 3 3 2 2 2 2 1 1 1 2 2 2 3 3 3 3 4 5 6 6 6 6 6 6 6 7 7 7 7 7 7 6 6 6 6 6
4 4 3 4 4 3 3 3 3 3 2 1 2 2 1 1 1 2 2 2 2 2 3 3 2 3 5 5 5 6 6 6 6 6 6 6 6 6 5 5 5 5 5
3 3 3 3 3 3 3 3 2 3 2 1 2 2 2 1 2 2 2 2 2 2 2 2 1 1 2 4 5 5 5 5 4 4 5 5 5 5 4 5 5 5 5
3 2 2 2 2 2 3 3 2 2 2 2 1 1 1 2 3 2 2 2 2 2 2 2 2 2 2 2 4 5 5 5 4 4 4 4 4 4 4 4 4 5 5
2 2 2 2 2 2 1 2 2 2 1 2 2 1 1 0 2 2 1 2 2 2 2 1 2 3 3 3 2 3 4 4 4 4 3 3 3 4 4 4 3 3 4
2 2 2 2 2 1 1 1 2 1 1 1 2 2 1 0 1 1 2 1 2 2 2 2 2 2 3 3 3 5 5 4 4 4 3 3 2 2 2 2 3 2 3
1 2 1 1 2 1 1 1 2 2 1 0 0 1 2 2 1 1 1 1 1 1 1 1 1 2 2 2 2 3 4 4 4 4 4 4 3 2 2 1 2 2 2
1 1 1 2 1 1 1 1 1 1 1 1 1 0 0 0 1 0 1 1 1 1 1 1 1 1 1 2 3 4 4 3 4 4 4 4 4 2 1 1 2 2 2
1 0 1 1 1 1 1 1 1 1 1 1 1 1 1 0 1 1 1 1 1 1 0 0 0 0 1 2 2 3 2 2 3 3 4 4 4 3 2 1 0 1 1
1 1 1 1 1 1 1 1 1 1 1 2 2 2 1 1 1 1 0 1 1 1 0 1 0 0 1 1 1 2 1 2 1 1 2 3 3 2 2 1 1 0 0
1 1 1 1 1 1 1 1 1 1 2 1 2 2 2 1 1 1 1 0 1 1 2 1 0 0 0 0 0 1 1 1 1 1 1 1 2 2 1 1 1 1 1
2 1 1 1 1 1 2 1 1 1 1 1 1 1 1 1 2 1 1 1 1 1 2 1 1 1 0 1 1 0 1 2 2 2 1 1 1 1 1 1 1 1 1
1 1 1 1 1 1 1 2 2 2 2 2 2 2 2 2 1 1 1 1 1 1 1 2 1 0 0 1 1 1 1 2 1 3 2 1 1 1 1 1 0 1 1
1 0 0 1 1 1 1 1 1 2 1 1 1 1 2 2 2 2 1 2 1 1 1 2 2 1 0 1 1 1 0 1 1 3 3 2 2 2 1 2 1 1 1
1 1 1 1 1 1 1 1 1 1 1 1 2 1 1 2 2 2 2 2 2 2 1 1 1 1 1 1 1 1 1 0 1 1 3 2 2 2 2 1 1 1 2
1 1 1 1 2 2 2 2 2 1 1 1 2 2 2 1 1 2 2 2 2 1 2 1 1 1 1 1 1 1 2 1 1 1 0 1 2 2 2 1 1 2 2
1 1 1 1 1 2 2 2 2 2 1 1 1 1 2 3 4 3 2 2 1 1 1 1 2 1 1 1 1 1 1 1 1 0 0 0 0 0 1 1 1 1 1
1 2 1 1 1 2 3 3 2 2 1 1 1 1 1 2 4 5 6 4 3 1 1 1 1 1 2 2 1 1 1 1 2 2 0 1 0 0 1 1 1 2 2
1 1 1 1 1 1 2 3 4 2 1 1 1 1 1 2 3 2 4 5 4 4 2 1 1 2 2 2 2 2 2 1 2 2 0 1 1 1 1 1 3 3 3
1 0 0 0 0 1 2 2 4 2 1 1 1 1 1 1 3 3 2 2 3 3 2 1 1 1 2 2 2 2 3 2 1 1 1 1 1 1 0 0 3 3 3
1 1 1 1 1 0 1 2 3 1 1 2 2 2 1 1 4 6 1 1 2 3 3 3 2 3 4 4 2 1 2 1 2 2 1 0 1 1 1 1 2 3 3
1 1 0 1 1 1 0 2 2 0 1 1 1 1 2 3 4 4 1 1 2 3 3 3 3 3 2 3 2 0 1 1 1 2 1 0 1 0 1 1 0 1 2
Wind_Direction
82 79 79 67 53 41 41 24 36 45 43 49 56 63 69 90 98 92 92 95 89 80 76 71 70 63 58 57 56 56 54 58 60 60 61 58 60 61 62 66 74 82 86
71 71 67 57 52 42 24 36 42 45 45 47 45 57 61 64 86 107 108 100 96 92 85 81 78 71 63 58 56 57 57 58 60 59 60 58 62 65 67 73 80 83 82
53 59 57 43 36 45 38 34 36 39 42 43 32 40 54 64 73 82 108 114 106 98 89 83 84 80 71 63 60 59 58 58 60 62 62 59 60 68 72 79 79 82 80
40 48 44 36 32 42 44 45 42 33 32 33 19 19 36 39 49 73 93 109 104 96 97 93 84 80 74 69 64 59 59 61 64 64 61 59 60 66 74 84 83 81 82
41 48 39 36 35 42 39 37 41 39 33 29 6 26 43 39 24 35 60 89 99 103 103 104 102 89 74 68 64 61 58 62 64 64 62 61 63 64 70 83 86 86 88
39 42 39 34 37 44 39 36 34 29 32 16 11 26 22 54 39 34 42 53 66 91 97 93 107 106 91 75 62 58 55 55 59 59 59 59 61 61 67 77 88 94 94
47 49 42 37 41 41 32 32 39 20 13 14 30 10 358 24 64 52 50 51 52 59 87 97 101 107 114 90 62 54 48 44 49 52 53 56 57 58 68 77 87 97 98
48 52 57 56 57 51 28 29 41 22 356 4 21 28 1 2 7 40 57 49 38 30 58 81 94 87 88 92 68 55 42 35 32 36 43 55 59 62 69 82 88 95 100
53 44 47 56 56 61 44 33 30 39 7 346 11 49 71 310 326 353 42 47 29 26 22 20 73 78 86 92 81 54 48 34 26 24 32 47 55 61 65 76 97 109 107
78 54 39 48 50 48 42 25 35 30 54 357 354 11 37 103 113 324 335 24 32 30 13 15 57 77 79 83 78 64 51 38 30 33 25 30 43 52 59 78 95 111 125
94 89 90 66 51 40 37 24 24 11 37 46 357 342 346 353 350 154 286 324 351 358 7 356 39 80 85 91 95 68 57 50 39 34 29 24 21 26 34 70 98 101 107
58 51 65 72 64 35 28 26 17 7 357 2 350 359 351 341 311 321 254 273 283 282 306 353 12 70 113 104 103 82 72 61 53 43 30 19 12 8 22 61 108 123 115
101 46 57 66 66 47 35 37 9 354 348 356 346 329 335 307 305 300 280 276 274 270 234 290 309 7 96 114 122 98 94 67 58 45 29 20 21 13 4 33 87 161 147
135 115 78 59 47 47 27 39 18 352 2 6 359 356 339 326 342 327 281 285 304 296 270 239 275 76 32 75 112 136 145 131 94 46 20 17 18 18 16 25 9 4 139
108 93 84 82 70 62 51 46 41 8 11 20 358 359 352 339 335 327 326 238 205 270 277 246 346 344 8 38 119 147 150 160 118 70 37 16 17 23 25 44 25 15 12
104 91 75 60 57 49 45 47 42 26 17 9 359 354 350 337 331 339 334 322 288 220 257 269 228 246 313 359 34 290 179 156 153 127 92 55 41 44 61 66 45 24 356
107 135 166 118 90 68 44 42 22 25 15 10 359 356 346 349 343 339 343 336 326 311 259 291 316 251 94 9 359 308 202 164 169 161 144 117 94 67 54 49 50 61 67
39 86 62 73 62 50 43 38 6 6 6 360 345 6 344 350 345 343 343 326 312 302 247 266 291 318 294 299 308 292 282 154 182 179 171 163 129 113 90 74 67 108 114
53 42 42 67 67 55 41 19 13 354 348 353 349 358 348 8 349 343 332 323 312 320 322 280 286 302 302 332 343 320 293 293 231 188 183 178 179 151 127 116 95 98 111
84 65 35 47 57 56 47 25 357 347 353 1 358 354 358 22 357 332 321 318 320 322 323 322 300 290 285 319 9 324 326 332 323 335 313 181 181 165 158 137 104 93 90
42 65 44 33 55 62 36 30 1 349 343 344 354 353 2 17 15 358 346 333 336 325 323 322 311 326 313 337 309 279 304 310 304 329 349 292 180 139 172 165 115 82 90
39 53 41 27 54 50 30 16 6 322 317 311 306 327 344 17 19 4 358 354 356 330 292 283 296 304 289 285 300 301 289 342 296 300 16 295 128 167 201 167 141 156 174
63 58 40 23 73 98 47 7 347 319 302 315 331 336 348 12 14 349 341 341 335 331 318 271 273 280 285 298 306 304 293 250 245 265 108 275 265 227 222 168 152 158 160
114 115 124 320 33 56 44 13 342 320 322 357 2 3 29 13 358 350 333 337 329 314 294 287 253 283 304 292 264 270 271 276 258 318 68 239 263 243 258 200 173 162 157
196 220 194 171 143 136 31 11 359 316 342 356 8 6 19 13 344 345 349 307 311 312 315 311 303 316 335 337 342 351 329 338 307 286 296 210 254 254 238 228 209 188 181
194 206 209 199 171 171 107 11 350 318 324 318 323 351 10 1 352 352 348 307 302 297 304 306 305 310 306 314 315 221 228 252 283 298 287 228 273 37 306 259 220 215 206